{"data":{"norad_id":67986,"intl_designator":"2026-039A","name":"STARLINK-36535","alt_names":[],"object_type":"PAYLOAD","status":"ACTIVE","operator":null,"country":"US","launch_date":"2026-02-27","launch_site_code":"AFETR","launch_vehicle":null,"mission":null,"orbit_class":"UNKNOWN","rcs_meters":null,"size_class":null,"mass_kg":null,"dimensions":null,"purposes":["comms"],"wikipedia_slug":null,"has_3d_model":false,"image_url":null,"decayed_at":null,"tle_current":{"epoch":"2026-09-19T15:45:15.335136Z","epoch_age_seconds":132552,"freshness":"FRESH","line1":"1 67986U 26039A   26262.65642749  .00014049  00000+0  51908-3 0  9990","line2":"2 67986  43.0019  33.8987 0000538 240.2384 119.8415 15.27579982 31369","mean_motion":15.27579982,"eccentricity":5.38e-5,"inclination_deg":43.0019,"raan_deg":33.8987,"arg_perigee_deg":240.2384,"mean_anomaly_deg":119.8415,"bstar":0.00051908,"rev_number":3136,"period_min":94.266749824429,"perigee_km":482.68001812326,"apogee_km":483.418281753,"semimajor_km":6861.1861499381,"source":"CELESTRAK","updated_at":"2026-09-20T09:00:43.734380Z"}}}